Location: La Chapelle
(48.3135°N, 1.3085°W)
Time: 08:12:38
(UTC+00:00)

GP-B - Pass Details

Date: 03 March 2021
Orbit: 631 x 635 km, 89.8° (Epoch: 11 April)

Event Time Altitude Azimuth Distance (km) Brightness Sun altitude
Rises 19:22:01 0° 176° (S) 2,918 6.4 -15.6°
Reaches altitude 10° 19:24:14 10° 176° (S) 2,015 5.6 -16.0°
Maximum altitude 19:28:40 88° 84° (E) 643 3.0 -16.7°
Drops below altitude 10° 19:33:09 10° 359° (N) 2,033 5.8 -17.5°
Sets 19:35:23 0° 359° (N) 2,946 6.7 -17.8°
